ACA290 CYTZ-KPHL

Flight info

Callsign ACA290
Flight time N/A
Altitude 33000
Route DUSOM2 PSB BUNTS3
Aircraft B738/M-SDGIJ1LRWY/SB1

Departure

Time 2026-04-23 16:26
Airport Billy Bishop Toronto City Airport (CYTZ)

Arrival

Time N/A
Airport Philadelphia International Airport (KPHL)
Time Latitude Longitude Altitude Speed Heading
2026-04-23 16:23 43.62759 -79.40282 241 ft 0 kts 71°
2026-04-23 16:24 43.62751 -79.40313 241 ft 5 kts 71°
2026-04-23 16:24 43.62745 -79.40338 241 ft 0 kts 71°
2026-04-23 16:25 43.62755 -79.40299 241 ft 34 kts 71°
2026-04-23 16:26 43.62953 -79.39517 238 ft 139 kts 70°
2026-04-23 16:26 43.63308 -79.38149 1283 ft 149 kts 70°
2026-04-23 16:26 43.63538 -79.36864 2332 ft 153 kts 95°
2026-04-23 16:26 43.63187 -79.35556 3149 ft 167 kts 118°
2026-04-23 16:27 43.62391 -79.34449 3919 ft 188 kts 154°
2026-04-23 16:27 43.61170 -79.34293 4695 ft 203 kts 197°
2026-04-23 16:27 43.60068 -79.35343 5481 ft 214 kts 239°
2026-04-23 16:27 43.59611 -79.37132 6360 ft 218 kts 267°
2026-04-23 16:28 43.59512 -79.38543 6948 ft 229 kts 270°
2026-04-23 16:28 43.59369 -79.40812 7950 ft 246 kts 269°
2026-04-23 16:28 43.59163 -79.43221 9037 ft 259 kts 268°
2026-04-23 16:28 43.58936 -79.45562 10019 ft 271 kts 268°
2026-04-23 16:29 43.58676 -79.48119 11071 ft 281 kts 268°
2026-04-23 16:29 43.58400 -79.50850 11956 ft 297 kts 268°
2026-04-23 16:29 43.58118 -79.53672 12755 ft 314 kts 268°
2026-04-23 16:29 43.58115 -79.53700 12761 ft 314 kts 268°